Flight Briefing for CPX654

Departure Arrival
The Florida Keys Marathon International Airport (KMTH)
Click to view FAA NOTAMS
Key West International Airport (KEYW)
Click to view FAA NOTAMS
Departure Time Arrival Time
N/A N/A
Aircraft Distance
SF340AF 40nm
Departure METAR Arrival METAR
KMTH 230653Z AUTO 09010G17KT 10SM FEW028 28/21 A3004 RMK AO2 SLP173 T02830206 KEYW 230653Z AUTO 09013G24KT 10SM SCT027 SCT034 BKN065 27/22 A3005 RMK AO2 SLP175 T02720217
Suggested Route
JANKA


View recent IFR Routes data
Notes



Charts and Procedures

Charts for KMTH
No chart available
Charts for KEYW
No chart available

Windy.com Weather Map